"Pseudo-MPEC" for P22bzKW

Created 2025 Jul 7 22:35:13 UT using Find_Orb

Click here for an explanation of pseudo-MPECs

 
 Astrometry: 
     P22bzKW* C2025 07 04.56143323 08 47.892-07 57 17.41   ~74KZ 21.88wXNEOCPF52
     P22bzKW  C2025 07 04.57219023 08 48.709-07 57 04.67   ~74KZ 21.61wXNEOCPF52
     P22bzKW  C2025 07 04.59372523 08 50.360-07 56 39.60   ~74KZ 21.81wXNEOCPF52
     P22bzKW KC2025 07 05.35854623 09 52.10 -07 41 45.4    ~7595 21.4 GVNEOCPH21
     P22bzKW KC2025 07 05.36172423 09 52.34 -07 41 41.7    ~7595 21.5 GVNEOCPH21
     P22bzKW 2C2025 07 05.56585923 10 08.566-07 37 38.71   ~77FZ 21.8 GWNEOCPT12
     P22bzKW 2C2025 07 05.56757523 10 08.694-07 37 36.79   ~77FZ 21.7 GWNEOCPT12
     P22bzKW KC2025 07 06.36156323 11 11.25 -07 22 05.8    ~76E5       VNEOCPH21
     P22bzKW KC2025 07 06.37244123 11 12.04 -07 21 52.8    ~76E5 21.8 GVNEOCPH21
     P22bzKW  C2025 07 06.43055323 11 16.586-07 20 43.86   ~76B5 21.3 GWNEOCPH01
     P22bzKW  C2025 07 06.43396823 11 16.837-07 20 39.89   ~76B5 21.2 GWNEOCPH01

Station data:
(F52) Pan-STARRS 2, Haleakala  (N20.707382 W156.255910)  US/Hawaii.
   Observers J. Bulger, T. Dukes, T. Lowe, A. Schultz, M. Willman. Measurers
   K. Chambers, S. Chastel, T. de Boer, L. Denneau, J. Fairlamb, H.
   Flewelling, M. Huber, C.-C. Lin, E. Magnier, Y. Ramanjooloo, R. Wainscoat,
   R. Weryk. 1.8-m Ritchey-Chrétien + CCD.
(H01) Magdalena Ridge Observatory, Socorro  (N33.984833 W107.189333)  US/New
   Mexico.  Observers W. H. Ryan, E. V. Ryan. Measurer W. H. Ryan. 2.4-m
   f/8.9 reflector + CCD.
(H21) Astronomical Research Observatory, Westfield  (N39.483054 W87.968270)
   US/Illinois.  Observer R. Holmes. Measurers S. Foglia, L. Buzzi, T.
   Linder, R. Holmes. 0.40-m f/5.32 astrograph + CCD.
(T12) Mauna Kea-UH/Tholen NEO Follow-Up (2.24-m)  (N19.822991 W155.469434)
   US/Hawaii.  Observer Y. Ramanjooloo. 2.24-m f/10.1 University of Hawaii
   reflector.

Orbital elements:  P22bzKW
   Perihelion 2025 Aug 3.33388 +/- 4.25 TT =  8:00:46 (JD 2460890.83388)
Epoch 2025 Jul  6.0 TT = JDT 2460862.5   Earth MOID: 0.4671      AutoNEOCP
M 351.03206474 +/- 2.4              (J2000 ecliptic)
n   0.31650930 +/- 0.0393           Peri.   11.17570 +/- 2.7
a   2.13244774 +/- 0.176            Node   315.26429 +/- 0.6
e   0.3066471 +/- 0.0454            Incl.    8.66142 +/- 0.22
P   3.11399                H 20.10  G  0.15   U 10.6
q 1.47853865 +/- 0.0254    Q 2.78635683 +/- 0.327
From 11 observations 2025 July 4-6 (44.9 hr); mean residual 0".11
Residuals in arcseconds: 
250704 F52  .05+  .07-    250705 H21  .11+  .12+    250706 H21  .25-  .30+    
250704 F52  .06-  .10+    250705 T12  .00   .04+    250706 H01  .06+  .06-    
250704 F52  .01-  .02-    250705 T12  .00   .05-    250706 H01  .05+  .11-    
250705 H21  .14+  .14+    250706 H21  .01+  .08+    

Ephemerides (geocentric):
Date (UTC) HH   RA             Dec           delta  r     elong  mag " sig PA
---- --------  ------------   ------------  ------ ------ -----  --- --------
2025 07 07 23  23 13 13.288   -06 50 31.85  .70514 1.4928 119.1 21.7 1.67 148
2025 07 08 00  23 13 16.415   -06 49 42.55  .70488 1.4928 119.1 21.7 1.72 148
2025 07 08 01  23 13 19.540   -06 48 53.24  .70462 1.4927 119.2 21.7 1.77 148
2025 07 08 02  23 13 22.661   -06 48 03.92  .70436 1.4927 119.2 21.7 1.81 148
2025 07 08 03  23 13 25.778   -06 47 14.60  .70410 1.4927 119.2 21.7 1.86 148
2025 07 08 04  23 13 28.893   -06 46 25.28  .70384 1.4926 119.2 21.7 1.91 148
2025 07 08 05  23 13 32.004   -06 45 35.94  .70358 1.4926 119.3 21.7 1.96 148
2025 07 08 06  23 13 35.113   -06 44 46.61  .70332 1.4925 119.3 21.7 2.01 148
2025 07 08 07  23 13 38.217   -06 43 57.26  .70306 1.4925 119.3 21.7 2.06 148
2025 07 08 08  23 13 41.319   -06 43 07.92  .70281 1.4924 119.3 21.7 2.11 148
2025 07 08 09  23 13 44.417   -06 42 18.56  .70255 1.4924 119.4 21.7 2.16 148
2025 07 08 10  23 13 47.512   -06 41 29.21  .70229 1.4923 119.4 21.7 2.22 148
2025 07 08 11  23 13 50.604   -06 40 39.84  .70203 1.4923 119.4 21.7 2.27 148
2025 07 08 12  23 13 53.693   -06 39 50.47  .70177 1.4923 119.4 21.7 2.33 148
2025 07 08 13  23 13 56.778   -06 39 01.10  .70151 1.4922 119.4 21.7 2.38 148
2025 07 08 14  23 13 59.860   -06 38 11.72  .70125 1.4922 119.5 21.7 2.44 148
2025 07 08 15  23 14 02.939   -06 37 22.33  .70099 1.4921 119.5 21.7 2.49 148
2025 07 08 16  23 14 06.014   -06 36 32.94  .70074 1.4921 119.5 21.7 2.55 148
2025 07 08 17  23 14 09.087   -06 35 43.55  .70048 1.4920 119.5 21.7 2.61 148
2025 07 08 18  23 14 12.156   -06 34 54.15  .70022 1.4920 119.6 21.7 2.67 148
2025 07 08 19  23 14 15.221   -06 34 04.74  .69996 1.4920 119.6 21.7 2.73 148
2025 07 08 20  23 14 18.284   -06 33 15.33  .69971 1.4919 119.6 21.7 2.79 148
2025 07 08 21  23 14 21.343   -06 32 25.92  .69945 1.4919 119.6 21.7 2.85 148
2025 07 08 22  23 14 24.399   -06 31 36.50  .69919 1.4918 119.6 21.7 2.91 148
2025 07 08 23  23 14 27.451   -06 30 47.07  .69893 1.4918 119.7 21.7 2.98 148
2025 07 09 00  23 14 30.500   -06 29 57.64  .69868 1.4917 119.7 21.7 3.04 148
2025 07 09 01  23 14 33.546   -06 29 08.20  .69842 1.4917 119.7 21.7 3.11 148
2025 07 09 02  23 14 36.589   -06 28 18.76  .69816 1.4917 119.7 21.7 3.17 148
2025 07 09 03  23 14 39.628   -06 27 29.31  .69791 1.4916 119.8 21.7 3.24 148
2025 07 09 04  23 14 42.664   -06 26 39.86  .69765 1.4916 119.8 21.7 3.30 148
2025 07 09 05  23 14 45.697   -06 25 50.41  .69739 1.4915 119.8 21.7 3.37 148
2025 07 09 06  23 14 48.726   -06 25 00.95  .69714 1.4915 119.8 21.7 3.44 148
2025 07 09 07  23 14 51.753   -06 24 11.48  .69688 1.4914 119.9 21.7 3.51 148
2025 07 09 08  23 14 54.775   -06 23 22.01  .69662 1.4914 119.9 21.7 3.58 148
2025 07 09 09  23 14 57.795   -06 22 32.53  .69637 1.4914 119.9 21.7 3.65 148
2025 07 09 10  23 15 00.811   -06 21 43.05  .69611 1.4913 119.9 21.7 3.72 148
2025 07 09 11  23 15 03.824   -06 20 53.57  .69586 1.4913 119.9 21.7 3.79 148
2025 07 09 12  23 15 06.833   -06 20 04.07  .69560 1.4912 120.0 21.7 3.87 148
2025 07 09 13  23 15 09.840   -06 19 14.58  .69535 1.4912 120.0 21.7 3.94 148
2025 07 09 14  23 15 12.842   -06 18 25.08  .69509 1.4911 120.0 21.6 4.02 148
2025 07 09 15  23 15 15.842   -06 17 35.57  .69484 1.4911 120.0 21.6 4.09 148
2025 07 09 16  23 15 18.838   -06 16 46.06  .69458 1.4911 120.1 21.6 4.17 148
2025 07 09 17  23 15 21.831   -06 15 56.55  .69433 1.4910 120.1 21.6 4.24 148
2025 07 09 18  23 15 24.821   -06 15 07.03  .69407 1.4910 120.1 21.6 4.32 148
2025 07 09 19  23 15 27.807   -06 14 17.50  .69382 1.4909 120.1 21.6 4.40 148
2025 07 09 20  23 15 30.790   -06 13 27.97  .69356 1.4909 120.2 21.6 4.48 148
2025 07 09 21  23 15 33.769   -06 12 38.44  .69331 1.4909 120.2 21.6 4.56 148
2025 07 09 22  23 15 36.745   -06 11 48.90  .69305 1.4908 120.2 21.6 4.64 148